Flag for USA

Past Weather in Fairfield Village Green, Connecticut, USA — Yesterday and Last 2 Weeks

Now
77 °F

Clear.


Feels Like: 79 °F
Forecast: 88 / 72 °F
Wind: 5 mph from Southwest

Location: Sikorsky Memorial Airport

Current Time: Jul 5, 2020 at 11:45:52 pm

Latest Report: Jul 5, 2020 at 10:52 pm


Visibility: 10 mi

Pressure: 29.94 "Hg

Humidity: 79%

Dew Point: 70 °F

Location of Fairfield Village GreenLocation

Past Weather in Fairfield Village Green — Graph

°F

Fairfield Village Green Temperature Yesterday

Maximum temperature yesterday: 80 °F (at 11:52 am)
Minimum temperature yesterday: 67 °F (at 3:52 am)
Average temperature yesterday: 73 °F

High & Low Weather Summary for the Past Weeks

 TemperatureHumidityPressure
High90 °F (Jun 22, 2:52 pm)97% (Jun 28, 5:23 am)30.02 "Hg (Jun 28, 5:23 am)
Low65 °F (Jun 27, 5:52 am)28% (Jun 24, 4:52 pm)29.65 "Hg (Jun 24, 3:52 am)
Average74 °F74%29.85 "Hg
* Reported Jun 20 9:52 pm — Jul 5 9:52 pm, Fairfield Village Green. Weather by CustomWeather, © 2020

Note: Actual official high and low records may vary slightly from our data, if they occured in-between our weather recording intervals... More about our weather records

Fairfield Village Green Weather History for the Previous 24 Hours

Scroll right to see more
 ConditionsComfort  
Time TempWeatherWind HumidityBarometerVisibility
9:52 pm
Sun, Jul 5
76 °FClear.5 mph85%29.94 "Hg10 mi
8:52 pm78 °FClear.6 mph79%29.92 "Hg10 mi
7:52 pm82 °FSunny.14 mph70%29.90 "Hg10 mi
6:52 pm84 °FSunny.No wind57%29.90 "Hg10 mi
5:52 pm88 °FSunny.8 mph45%29.89 "Hg10 mi
4:52 pm86 °FSunny.8 mph48%29.89 "Hg10 mi
3:52 pm86 °FSunny.9 mph51%29.91 "Hg10 mi
2:52 pm84 °FSunny.10 mph55%29.93 "Hg10 mi
1:52 pm82 °FSunny.10 mph60%29.93 "Hg9 mi
12:52 pm80 °FSunny.12 mph67%29.95 "Hg8 mi
11:52 am79 °FSunny.13 mph69%29.95 "Hg9 mi
10:52 am78 °FSunny.10 mph71%29.95 "Hg8 mi
10:29 am77 °FScattered clouds.8 mph74%29.95 "Hg8 mi
9:52 am76 °FPartly sunny.5 mph77%29.96 "Hg9 mi
8:52 am73 °FOvercast.3 mph84%29.97 "Hg10 mi
7:52 am72 °FOvercast.3 mph87%29.96 "Hg7 mi
6:52 am72 °FFog.3 mph87%29.96 "Hg6 mi
5:52 am71 °FFog.3 mph87%29.95 "Hg4 mi
4:52 am70 °FFog.3 mph90%29.93 "Hg3 mi
3:52 am71 °FFog.5 mph87%29.93 "Hg2 mi
2:52 am71 °FFog.5 mph87%29.94 "Hg2 mi
1:52 am71 °FPassing clouds.5 mph84%29.95 "Hg1 mi
1:10 am71 °FFog.5 mph87%29.95 "Hg1 mi
12:52 am72 °FPassing clouds.3 mph84%29.94 "Hg2 mi
11:52 pm
Sat, Jul 4
71 °FClear.5 mph84%29.93 "Hg4 mi
Weather by CustomWeather, © 2020

See weather overview